Regional Weather Roundup
Issued by NWS

Home | Current Version | Previous Version | Text Only | Print | Product List | Glossary On
Versions: 1 2 3 4 5 6 7 8 9 10 11 12 13 14 15 16 17 18 19 20 21 22 23 24 25 26 27 28 29 30 31 32 33 34 35 36 37 38 39 40 41 42 43 44 45 46 47 48 49
000
ASUS42 KFFC 050403
RWRGA
WEATHER ROUNDUP FOR GEORGIA
NATIONAL WEATHER SERVICE PEACHTREE CITY GA
1100 PM EST WED MAR 04 2015

NOTE: "FAIR" INDICATES FEW OR NO CLOUDS BELOW 12,000 FEET WITH NO
SIGNIFICANT WEATHER AND/OR OBSTRUCTIONS TO VISIBILITY.

* = USE WITH CAUTION. THE STATIONS MARKED WITH AN ASTERISK MAY NOT
REPORT WEATHER SUCH AS PRECIPITATION, FOG, OR THUNDER AND ARE NOT
QUALITY CONTROLLED BY NWS.

THE REMARK "TC" DENOTES TEMPERATURE READING IN DEGREES CELSIUS.

GAZ001>058-050500-
NORTH GEORGIA

CITY           SKY/WX    TMP DP  RH WIND       PRES   REMARKS
ATLANTA        LGT RAIN  68  61  78 SW14G20   29.94R
ATHENS         CLOUDY    66  59  78 S6        29.92F
CHAMBLEE       RAIN      64  63  96 SW6       29.94R
PEACHTREE CITY LGT RAIN  69  63  81 SW7       29.95R
ROME           CLOUDY    61  60  97 CALM      29.90S
WEST ATLANTA   LGT RAIN  66  63  90 SW8       29.92F
GAINESVILLE    HVY RAIN  64  61  90 SW7       29.94S FOG
CARTERSVILLE   CLOUDY    61  60  97 CALM      29.92R


CITY           SKY/WX    TMP DP  RH WIND       PRES   REMARKS
DALTON*        CLOUDY    54  52  94 N7        29.96R
MARIETTA       CLOUDY    65  65  99 SW6       29.92F
$$

GAZ059>098-102>109-050500-
CENTRAL GEORGIA

CITY           SKY/WX    TMP DP  RH WIND       PRES   REMARKS
AUGUSTA-BUSH   PTCLDY    70  57  63 SW13      29.96S
AUGUSTA-DANIEL PTCLDY    71  58  63 S15       29.96F
COLUMBUS       CLOUDY    69  63  81 SW14G20   29.97S
MACON          CLEAR     69  62  78 SW9G20    29.97R
ROBINS AFB     CLEAR     69  62  80 S10       29.97


CITY           SKY/WX    TMP DP  RH WIND       PRES   REMARKS
LAGRANGE*      RAIN      73  67  83 SW10G16   29.95S
SYLVANIA*      CLEAR     66  61  82 CALM      30.02R
MILLEDGEVILLE* CLEAR     64  63  94 CALM      29.95S
$$

GAZ099>101-110>166-050500-
SOUTH GEORGIA

CITY           SKY/WX    TMP DP  RH WIND       PRES   REMARKS
SAVANNAH       CLEAR     63  59  87 S7        30.04R
VALDOSTA       CLOUDY    70  67  90 S7        30.06S
ALMA           CLEAR     68  63  84 SW7       30.05R
ST SIMONS      CLEAR     59  57  93 S5        30.06S
FT STEWART     CLEAR     67  61  80 S7        30.02R
ALBANY         CLEAR     68  65  90 S14       30.04S
HUNTER AFB     CLEAR     62  61  97 S5        30.02S
MOODY AFB      CLOUDY    70  66  85 SW12      30.05S
BRUNSWICK      CLEAR     61  57  88 CALM      30.06S


CITY           SKY/WX    TMP DP  RH WIND       PRES   REMARKS
BAINBRIDGE*    CLOUDY    73  70  88 S7        30.04R
MOULTRIE*      CLOUDY    68  68 100 S8        30.06S
VIDALIA*       CLEAR     70  63  78 SW8       30.03R
WAYCROSS*      CLEAR     71  68  90 SW7       30.05S
DOUGLAS*       CLOUDY    70  64  83 SW8       30.06S
$$


USA.gov is the U.S. government's official web portal to all federal, state and local government web resources and services.